Wetterdaten: Sonntag, 02.03.2014
Datum Zeit Temperatur Luftfeuchte Luftdruck Regen Wind Richtung Richtung Taupunkt Windchill Windben
02.03.2014 00:00 0,6 C 87 % 1002,1 hPa 0,0 l/m 0,8 km/h (0 Bft) S 180 -1,3 C 0,9 C 0,0 km/h (0 Bft)
02.03.2014 00:05 0,7 C 87 % 1002,1 hPa 0,0 l/m 1,1 km/h (1 Bft) S 180 -1,2 C 0,9 C 4,8 km/h (1 Bft)
02.03.2014 00:10 0,7 C 87 % 1002,0 hPa 0,0 l/m 2,3 km/h (1 Bft) S-SO 157 -1,2 C 1,0 C 3,1 km/h (1 Bft)
02.03.2014 00:15 0,7 C 87 % 1002,0 hPa 0,0 l/m 1,9 km/h (1 Bft) SO 135 -1,2 C 1,0 C 0,0 km/h (0 Bft)
02.03.2014 00:20 0,7 C 87 % 1002,0 hPa 0,0 l/m 1,0 km/h (0 Bft) O-SO 112 -1,2 C 1,0 C 1,9 km/h (1 Bft)
02.03.2014 00:25 0,7 C 87 % 1002,0 hPa 0,0 l/m 0,8 km/h (0 Bft) O-SO 112 -1,2 C 1,0 C 3,1 km/h (1 Bft)
02.03.2014 00:30 0,8 C 87 % 1002,1 hPa 0,0 l/m 2,4 km/h (1 Bft) O 90 -1,1 C 1,0 C 6,3 km/h (2 Bft)
02.03.2014 00:35 0,8 C 87 % 1002,1 hPa 0,0 l/m 2,9 km/h (1 Bft) SO 135 -1,1 C 0,7 C 3,2 km/h (1 Bft)
02.03.2014 00:40 0,8 C 87 % 1002,1 hPa 0,0 l/m 3,1 km/h (1 Bft) S 180 -1,1 C 0,6 C 7,4 km/h (2 Bft)
02.03.2014 00:45 0,7 C 87 % 1002,1 hPa 0,0 l/m 3,2 km/h (1 Bft) O-SO 112 -1,2 C 0,5 C 4,0 km/h (1 Bft)
02.03.2014 00:50 0,7 C 87 % 1002,2 hPa 0,0 l/m 2,1 km/h (1 Bft) O-SO 112 -1,2 C 1,0 C 0,0 km/h (0 Bft)
02.03.2014 00:55 0,7 C 87 % 1002,2 hPa 0,0 l/m 1,1 km/h (1 Bft) O-SO 112 -1,2 C 1,0 C 1,8 km/h (1 Bft)
02.03.2014 01:00 0,7 C 87 % 1002,2 hPa 0,0 l/m 0,8 km/h (0 Bft) S 180 -1,2 C 0,9 C 2,3 km/h (1 Bft)
02.03.2014 01:05 0,7 C 87 % 1002,2 hPa 0,0 l/m 1,6 km/h (1 Bft) O-SO 112 -1,2 C 0,9 C 3,9 km/h (1 Bft)
02.03.2014 01:10 0,7 C 87 % 1002,1 hPa 0,0 l/m 2,7 km/h (1 Bft) S 180 -1,2 C 0,7 C 2,3 km/h (1 Bft)
02.03.2014 01:15 0,7 C 87 % 1002,1 hPa 0,0 l/m 3,7 km/h (1 Bft) S 180 -1,2 C 0,2 C 4,8 km/h (1 Bft)
02.03.2014 01:20 0,7 C 87 % 1002,1 hPa 0,0 l/m 3,4 km/h (1 Bft) O-SO 112 -1,2 C 0,4 C 7,2 km/h (2 Bft)
02.03.2014 01:25 0,7 C 87 % 1002,1 hPa 0,0 l/m 3,1 km/h (1 Bft) S 180 -1,2 C 0,6 C 4,3 km/h (1 Bft)
02.03.2014 01:30 0,7 C 87 % 1002,0 hPa 0,0 l/m 3,9 km/h (1 Bft) O-SO 112 -1,2 C 0,1 C 5,0 km/h (1 Bft)
02.03.2014 01:35 0,7 C 87 % 1002,0 hPa 0,0 l/m 4,0 km/h (1 Bft) S 180 -1,2 C 0,0 C 6,1 km/h (2 Bft)
02.03.2014 01:40 0,7 C 88 % 1002,0 hPa 0,0 l/m 4,2 km/h (1 Bft) S-SO 157 -1,1 C -0,1 C 2,6 km/h (1 Bft)
02.03.2014 01:45 0,7 C 88 % 1002,0 hPa 0,0 l/m 4,5 km/h (1 Bft) S 180 -1,1 C -0,2 C 6,4 km/h (2 Bft)
02.03.2014 01:50 0,7 C 88 % 1002,1 hPa 0,0 l/m 3,9 km/h (1 Bft) O-SO 112 -1,1 C 0,0 C 4,2 km/h (1 Bft)
02.03.2014 01:55 0,7 C 88 % 1002,1 hPa 0,0 l/m 2,9 km/h (1 Bft) S 180 -1,1 C 0,6 C 2,4 km/h (1 Bft)
02.03.2014 01:58 0,7 C 88 % 1002,1 hPa 0,0 l/m 2,6 km/h (1 Bft) S-SO 157 -1,1 C 0,8 C 5,1 km/h (1 Bft)
02.03.2014 02:00 0,7 C 88 % 1002,1 hPa 0,0 l/m 2,6 km/h (1 Bft) S-SO 157 -1,1 C 0,8 C 5,1 km/h (1 Bft)
02.03.2014 02:05 0,7 C 88 % 1002,1 hPa 0,0 l/m 3,4 km/h (1 Bft) S-SO 157 -1,1 C 0,3 C 5,0 km/h (1 Bft)
02.03.2014 02:10 0,7 C 88 % 1002,2 hPa 0,0 l/m 3,7 km/h (1 Bft) S 180 -1,1 C 0,1 C 3,5 km/h (1 Bft)
02.03.2014 02:15 0,6 C 88 % 1002,2 hPa 0,0 l/m 3,4 km/h (1 Bft) SO 135 -1,2 C 0,3 C 2,7 km/h (1 Bft)
02.03.2014 02:20 0,6 C 88 % 1002,2 hPa 0,0 l/m 2,4 km/h (1 Bft) S 180 -1,2 C 0,9 C 4,0 km/h (1 Bft)
02.03.2014 02:25 0,6 C 88 % 1002,2 hPa 0,0 l/m 2,6 km/h (1 Bft) S 180 -1,2 C 0,8 C 4,5 km/h (1 Bft)
02.03.2014 02:30 0,7 C 88 % 1002,2 hPa 0,0 l/m 2,9 km/h (1 Bft) S 180 -1,1 C 0,6 C 2,1 km/h (1 Bft)
02.03.2014 02:35 0,6 C 88 % 1002,2 hPa 0,0 l/m 1,8 km/h (1 Bft) SO 135 -1,2 C 0,9 C 0,0 km/h (0 Bft)
02.03.2014 02:40 0,6 C 88 % 1002,2 hPa 0,0 l/m 0,5 km/h (0 Bft) S-SO 157 -1,2 C 0,9 C 2,1 km/h (1 Bft)
02.03.2014 02:45 0,6 C 88 % 1002,2 hPa 0,0 l/m 0,8 km/h (0 Bft) S 180 -1,2 C 0,9 C 1,8 km/h (1 Bft)
02.03.2014 02:50 0,7 C 88 % 1002,1 hPa 0,0 l/m 1,6 km/h (1 Bft) O 90 -1,1 C 0,9 C 2,6 km/h (1 Bft)
02.03.2014 02:55 0,7 C 88 % 1002,1 hPa 0,0 l/m 1,6 km/h (1 Bft) S-SO 157 -1,1 C 0,9 C 1,6 km/h (1 Bft)
02.03.2014 03:00 0,6 C 88 % 1002,1 hPa 0,0 l/m 1,3 km/h (1 Bft) S-SO 157 -1,2 C 0,8 C 0,0 km/h (0 Bft)
02.03.2014 03:05 0,6 C 88 % 1002,1 hPa 0,0 l/m 1,0 km/h (0 Bft) O-SO 112 -1,2 C 0,8 C 1,6 km/h (1 Bft)
02.03.2014 03:10 0,6 C 88 % 1002,1 hPa 0,0 l/m 1,0 km/h (0 Bft) S-SO 157 -1,2 C 0,7 C 0,0 km/h (0 Bft)
02.03.2014 03:15 0,6 C 88 % 1002,1 hPa 0,0 l/m 1,3 km/h (1 Bft) SO 135 -1,2 C 0,7 C 0,0 km/h (0 Bft)
02.03.2014 03:20 0,6 C 88 % 1002,1 hPa 0,0 l/m 1,6 km/h (1 Bft) S-SO 157 -1,2 C 0,7 C 3,9 km/h (1 Bft)
02.03.2014 03:25 0,6 C 88 % 1002,1 hPa 0,0 l/m 1,4 km/h (1 Bft) S 180 -1,2 C 0,7 C 0,0 km/h (0 Bft)
02.03.2014 03:30 0,6 C 88 % 1002,0 hPa 0,0 l/m 1,3 km/h (1 Bft) SO 135 -1,2 C 0,6 C 2,4 km/h (1 Bft)
02.03.2014 03:35 0,5 C 88 % 1002,0 hPa 0,0 l/m 0,3 km/h (0 Bft) S-SO 157 -1,3 C 0,6 C 0,0 km/h (0 Bft)
02.03.2014 03:40 0,5 C 89 % 1002,0 hPa 0,0 l/m 0,8 km/h (0 Bft) S 180 -1,1 C 0,6 C 2,6 km/h (1 Bft)
02.03.2014 03:45 0,5 C 89 % 1002,0 hPa 0,0 l/m 1,9 km/h (1 Bft) S-SO 157 -1,1 C 0,6 C 4,8 km/h (1 Bft)
02.03.2014 03:50 0,5 C 89 % 1002,2 hPa 0,0 l/m 2,3 km/h (1 Bft) S 180 -1,1 C 0,6 C 4,2 km/h (1 Bft)
02.03.2014 03:55 0,5 C 89 % 1002,2 hPa 0,0 l/m 2,7 km/h (1 Bft) S 180 -1,1 C 0,4 C 3,2 km/h (1 Bft)
02.03.2014 04:00 0,5 C 89 % 1002,2 hPa 0,0 l/m 3,5 km/h (1 Bft) S 180 -1,1 C -0,1 C 4,5 km/h (1 Bft)
02.03.2014 04:05 0,5 C 89 % 1002,2 hPa 0,0 l/m 3,7 km/h (1 Bft) S 180 -1,1 C -0,2 C 4,8 km/h (1 Bft)
02.03.2014 04:10 0,5 C 90 % 1002,2 hPa 0,0 l/m 3,5 km/h (1 Bft) S 180 -0,9 C -0,1 C 3,9 km/h (1 Bft)
02.03.2014 04:15 0,5 C 90 % 1002,2 hPa 0,0 l/m 3,1 km/h (1 Bft) S-SO 157 -0,9 C 0,2 C 4,0 km/h (1 Bft)
02.03.2014 04:20 0,5 C 90 % 1002,2 hPa 0,0 l/m 2,4 km/h (1 Bft) O-SO 112 -0,9 C 0,6 C 0,0 km/h (0 Bft)
02.03.2014 04:25 0,5 C 90 % 1002,2 hPa 0,0 l/m 1,8 km/h (1 Bft) O-SO 112 -0,9 C 0,6 C 2,3 km/h (1 Bft)
02.03.2014 04:30 0,5 C 90 % 1002,2 hPa 0,0 l/m 1,3 km/h (1 Bft) O-SO 112 -0,9 C 0,6 C 3,2 km/h (1 Bft)
02.03.2014 04:35 0,5 C 90 % 1002,2 hPa 0,0 l/m 1,8 km/h (1 Bft) O-SO 112 -0,9 C 0,6 C 3,2 km/h (1 Bft)
02.03.2014 04:40 0,6 C 90 % 1002,2 hPa 0,0 l/m 2,7 km/h (1 Bft) S-SO 157 -0,8 C 0,4 C 5,6 km/h (1 Bft)
02.03.2014 04:45 0,6 C 90 % 1002,2 hPa 0,0 l/m 2,7 km/h (1 Bft) O-SO 112 -0,8 C 0,4 C 2,6 km/h (1 Bft)
02.03.2014 04:50 0,6 C 91 % 1002,3 hPa 0,0 l/m 3,2 km/h (1 Bft) S 180 -0,7 C 0,1 C 4,2 km/h (1 Bft)
02.03.2014 04:55 0,6 C 91 % 1002,3 hPa 0,0 l/m 2,9 km/h (1 Bft) S 180 -0,7 C 0,3 C 2,9 km/h (1 Bft)
02.03.2014 05:00 0,6 C 91 % 1002,3 hPa 0,0 l/m 2,7 km/h (1 Bft) S-SO 157 -0,7 C 0,4 C 6,6 km/h (2 Bft)
02.03.2014 05:05 0,6 C 91 % 1002,3 hPa 0,0 l/m 3,2 km/h (1 Bft) O-SO 112 -0,7 C 0,1 C 2,4 km/h (1 Bft)
02.03.2014 05:10 0,6 C 91 % 1002,5 hPa 0,0 l/m 2,9 km/h (1 Bft) S 180 -0,7 C 0,3 C 4,2 km/h (1 Bft)
02.03.2014 05:15 0,6 C 91 % 1002,5 hPa 0,0 l/m 2,6 km/h (1 Bft) S-SO 157 -0,7 C 0,5 C 3,2 km/h (1 Bft)
02.03.2014 05:20 0,6 C 91 % 1002,5 hPa 0,0 l/m 3,2 km/h (1 Bft) S 180 -0,7 C 0,1 C 6,1 km/h (2 Bft)
02.03.2014 05:25 0,6 C 91 % 1002,5 hPa 0,0 l/m 3,1 km/h (1 Bft) S-SO 157 -0,7 C 0,2 C 4,3 km/h (1 Bft)
02.03.2014 05:30 0,6 C 91 % 1002,6 hPa 0,0 l/m 3,1 km/h (1 Bft) S 180 -0,7 C 0,2 C 1,9 km/h (1 Bft)
02.03.2014 05:35 0,5 C 91 % 1002,6 hPa 0,0 l/m 2,1 km/h (1 Bft) O-SO 112 -0,8 C 0,6 C 0,0 km/h (0 Bft)
02.03.2014 05:40 0,5 C 91 % 1002,6 hPa 0,0 l/m 1,4 km/h (1 Bft) SO 135 -0,8 C 0,6 C 2,4 km/h (1 Bft)
02.03.2014 05:45 0,6 C 91 % 1002,6 hPa 0,0 l/m 1,8 km/h (1 Bft) SO 135 -0,7 C 0,6 C 2,3 km/h (1 Bft)
02.03.2014 05:50 0,5 C 91 % 1002,8 hPa 0,0 l/m 1,6 km/h (1 Bft) SO 135 -0,8 C 0,6 C 2,1 km/h (1 Bft)
02.03.2014 05:55 0,6 C 91 % 1002,8 hPa 0,0 l/m 1,3 km/h (1 Bft) O-SO 112 -0,7 C 0,6 C 1,8 km/h (1 Bft)
02.03.2014 06:00 0,6 C 91 % 1002,8 hPa 0,0 l/m 1,9 km/h (1 Bft) O-SO 112 -0,7 C 0,7 C 3,9 km/h (1 Bft)
02.03.2014 06:05 0,6 C 92 % 1002,8 hPa 0,0 l/m 2,3 km/h (1 Bft) SO 135 -0,5 C 0,7 C 3,1 km/h (1 Bft)
02.03.2014 06:10 0,6 C 92 % 1002,9 hPa 0,0 l/m 2,7 km/h (1 Bft) S-SO 157 -0,5 C 0,5 C 2,9 km/h (1 Bft)
02.03.2014 06:15 0,6 C 92 % 1002,9 hPa 0,0 l/m 2,6 km/h (1 Bft) O-SO 112 -0,5 C 0,6 C 1,8 km/h (1 Bft)
02.03.2014 06:20 0,6 C 92 % 1002,9 hPa 0,0 l/m 2,6 km/h (1 Bft) S 180 -0,5 C 0,5 C 5,3 km/h (1 Bft)
02.03.2014 06:25 0,6 C 92 % 1002,9 hPa 0,0 l/m 3,2 km/h (1 Bft) O-SO 112 -0,5 C 0,2 C 4,2 km/h (1 Bft)
02.03.2014 06:30 0,6 C 92 % 1002,9 hPa 0,0 l/m 3,1 km/h (1 Bft) SO 135 -0,5 C 0,3 C 0,0 km/h (0 Bft)
02.03.2014 06:35 0,6 C 93 % 1002,9 hPa 0,0 l/m 1,4 km/h (1 Bft) S 180 -0,4 C 0,7 C 3,1 km/h (1 Bft)
02.03.2014 06:40 0,6 C 93 % 1002,9 hPa 0,0 l/m 1,6 km/h (1 Bft) S 180 -0,4 C 0,7 C 3,9 km/h (1 Bft)
02.03.2014 06:45 0,6 C 93 % 1002,9 hPa 0,0 l/m 2,9 km/h (1 Bft) SO 135 -0,4 C 0,4 C 3,9 km/h (1 Bft)
02.03.2014 06:50 0,6 C 93 % 1003,1 hPa 0,0 l/m 2,1 km/h (1 Bft) S-SO 157 -0,4 C 0,7 C 2,1 km/h (1 Bft)
02.03.2014 06:55 0,6 C 93 % 1003,1 hPa 0,0 l/m 1,4 km/h (1 Bft) S-SO 157 -0,4 C 0,6 C 0,0 km/h (0 Bft)
02.03.2014 06:58 0,5 C 93 % 1003,1 hPa 0,0 l/m 0,5 km/h (0 Bft) SO 135 -0,5 C 0,6 C 0,0 km/h (0 Bft)
02.03.2014 07:00 0,5 C 93 % 1003,1 hPa 0,0 l/m 0,5 km/h (0 Bft) SO 135 -0,5 C 0,6 C 0,0 km/h (0 Bft)
02.03.2014 07:05 0,5 C 93 % 1003,1 hPa 0,0 l/m 0,0 km/h (0 Bft) O-SO 112 -0,5 C 0,6 C 0,0 km/h (0 Bft)
02.03.2014 07:10 0,5 C 93 % 1003,2 hPa 0,0 l/m 0,0 km/h (0 Bft) O-SO 112 -0,5 C 0,6 C 0,0 km/h (0 Bft)
02.03.2014 07:15 0,5 C 93 % 1003,2 hPa 0,0 l/m 0,0 km/h (0 Bft) O-SO 112 -0,5 C 0,6 C 0,0 km/h (0 Bft)
02.03.2014 07:20 0,6 C 93 % 1003,2 hPa 0,0 l/m 0,0 km/h (0 Bft) O-SO 112 -0,4 C 0,6 C 0,0 km/h (0 Bft)
02.03.2014 07:25 0,6 C 93 % 1003,2 hPa 0,0 l/m 0,0 km/h (0 Bft) O-SO 112 -0,4 C 0,6 C 0,0 km/h (0 Bft)
02.03.2014 07:30 0,5 C 93 % 1003,4 hPa 0,0 l/m 0,0 km/h (0 Bft) O-SO 112 -0,5 C 0,6 C 0,0 km/h (0 Bft)
02.03.2014 07:35 0,5 C 93 % 1003,4 hPa 0,0 l/m 0,0 km/h (0 Bft) O-SO 112 -0,5 C 0,6 C 0,0 km/h (0 Bft)
02.03.2014 07:40 0,6 C 93 % 1003,4 hPa 0,0 l/m 0,0 km/h (0 Bft) O-SO 112 -0,4 C 0,7 C 0,0 km/h (0 Bft)
02.03.2014 07:45 0,6 C 94 % 1003,4 hPa 0,0 l/m 0,0 km/h (0 Bft) O-SO 112 -0,3 C 0,7 C 0,0 km/h (0 Bft)
02.03.2014 07:50 0,6 C 94 % 1003,8 hPa 0,0 l/m 0,0 km/h (0 Bft) O-SO 112 -0,3 C 0,7 C 0,0 km/h (0 Bft)
02.03.2014 07:55 0,6 C 94 % 1003,8 hPa 0,0 l/m 0,0 km/h (0 Bft) O-SO 112 -0,3 C 0,7 C 0,0 km/h (0 Bft)
02.03.2014 08:00 0,7 C 94 % 1003,8 hPa 0,0 l/m 0,0 km/h (0 Bft) SO 135 -0,2 C 0,8 C 0,0 km/h (0 Bft)
02.03.2014 08:05 0,7 C 94 % 1003,8 hPa 0,0 l/m 0,0 km/h (0 Bft) SO 135 -0,2 C 0,8 C 0,0 km/h (0 Bft)
02.03.2014 08:10 0,7 C 94 % 1003,9 hPa 0,0 l/m 0,0 km/h (0 Bft) S 180 -0,2 C 0,8 C 0,0 km/h (0 Bft)
02.03.2014 08:15 0,7 C 94 % 1003,9 hPa 0,0 l/m 0,0 km/h (0 Bft) S 180 -0,2 C 0,8 C 0,0 km/h (0 Bft)
02.03.2014 08:20 0,7 C 94 % 1003,9 hPa 0,0 l/m 0,0 km/h (0 Bft) S 180 -0,2 C 0,8 C 0,0 km/h (0 Bft)
02.03.2014 08:25 0,7 C 94 % 1003,9 hPa 0,0 l/m 0,0 km/h (0 Bft) S 180 -0,2 C 0,9 C 0,0 km/h (0 Bft)
02.03.2014 08:30 0,7 C 94 % 1004,1 hPa 0,0 l/m 0,0 km/h (0 Bft) S 180 -0,2 C 0,9 C 0,0 km/h (0 Bft)
02.03.2014 08:35 0,7 C 94 % 1004,1 hPa 0,0 l/m 0,0 km/h (0 Bft) S-SW 202 -0,2 C 0,9 C 0,0 km/h (0 Bft)
02.03.2014 08:40 0,8 C 94 % 1004,1 hPa 0,0 l/m 0,0 km/h (0 Bft) S-SW 202 -0,1 C 1,0 C 0,0 km/h (0 Bft)
02.03.2014 08:45 0,8 C 94 % 1004,1 hPa 0,0 l/m 0,0 km/h (0 Bft) S-SO 157 -0,1 C 1,0 C 0,0 km/h (0 Bft)
02.03.2014 08:50 0,8 C 94 % 1004,2 hPa 0,0 l/m 0,0 km/h (0 Bft) SO 135 -0,1 C 1,1 C 0,0 km/h (0 Bft)
02.03.2014 08:55 0,8 C 94 % 1004,2 hPa 0,0 l/m 0,0 km/h (0 Bft) SO 135 -0,1 C 1,1 C 0,0 km/h (0 Bft)
02.03.2014 09:00 0,9 C 94 % 1004,2 hPa 0,0 l/m 0,0 km/h (0 Bft) SO 135 0,0 C 1,2 C 0,0 km/h (0 Bft)
02.03.2014 09:05 1,0 C 94 % 1004,2 hPa 0,0 l/m 0,0 km/h (0 Bft) SO 135 0,1 C 1,2 C 0,0 km/h (0 Bft)
02.03.2014 09:10 1,1 C 94 % 1004,6 hPa 0,0 l/m 0,0 km/h (0 Bft) S 180 0,2 C 1,2 C 0,0 km/h (0 Bft)
02.03.2014 09:15 1,1 C 94 % 1004,6 hPa 0,0 l/m 0,0 km/h (0 Bft) S 180 0,2 C 1,3 C 0,0 km/h (0 Bft)
02.03.2014 09:20 1,2 C 95 % 1004,6 hPa 0,0 l/m 0,0 km/h (0 Bft) S 180 0,5 C 1,4 C 0,0 km/h (0 Bft)
02.03.2014 09:25 1,4 C 95 % 1004,6 hPa 0,0 l/m 0,0 km/h (0 Bft) SW 225 0,7 C 1,5 C 1,9 km/h (1 Bft)
02.03.2014 09:30 1,5 C 95 % 1004,6 hPa 0,0 l/m 0,6 km/h (0 Bft) S 180 0,8 C 1,6 C 2,6 km/h (1 Bft)
02.03.2014 09:35 1,6 C 95 % 1004,6 hPa 0,0 l/m 0,8 km/h (0 Bft) W-SW 247 0,9 C 1,8 C 2,1 km/h (1 Bft)
02.03.2014 09:40 1,6 C 95 % 1004,6 hPa 0,0 l/m 1,1 km/h (1 Bft) W-SW 247 0,9 C 1,8 C 2,6 km/h (1 Bft)
02.03.2014 09:45 1,6 C 95 % 1004,6 hPa 0,0 l/m 1,8 km/h (1 Bft) SW 225 0,9 C 1,9 C 4,0 km/h (1 Bft)
02.03.2014 09:50 1,6 C 95 % 1004,8 hPa 0,0 l/m 2,7 km/h (1 Bft) S 180 0,9 C 1,7 C 6,1 km/h (2 Bft)
02.03.2014 09:55 1,6 C 95 % 1004,8 hPa 0,0 l/m 2,6 km/h (1 Bft) S-SW 202 0,9 C 1,8 C 4,2 km/h (1 Bft)
02.03.2014 10:00 1,6 C 95 % 1004,8 hPa 0,0 l/m 3,7 km/h (1 Bft) S-SW 202 0,9 C 1,0 C 3,7 km/h (1 Bft)
02.03.2014 10:05 1,6 C 94 % 1004,8 hPa 0,0 l/m 3,7 km/h (1 Bft) S 180 0,7 C 1,1 C 3,9 km/h (1 Bft)
02.03.2014 10:10 1,6 C 94 % 1005,1 hPa 0,0 l/m 2,3 km/h (1 Bft) W-SW 247 0,7 C 1,8 C 2,1 km/h (1 Bft)
02.03.2014 10:15 1,6 C 94 % 1005,1 hPa 0,0 l/m 1,3 km/h (1 Bft) S-SW 202 0,7 C 1,8 C 0,0 km/h (0 Bft)
02.03.2014 10:20 1,6 C 94 % 1005,1 hPa 0,0 l/m 0,8 km/h (0 Bft) W-SW 247 0,7 C 1,8 C 0,0 km/h (0 Bft)
02.03.2014 10:25 1,6 C 94 % 1005,1 hPa 0,0 l/m 0,8 km/h (0 Bft) W-SW 247 0,7 C 1,8 C 4,5 km/h (1 Bft)
02.03.2014 10:30 1,7 C 94 % 1005,1 hPa 0,0 l/m 1,4 km/h (1 Bft) S 180 0,8 C 1,8 C 0,0 km/h (0 Bft)
02.03.2014 10:35 1,7 C 95 % 1005,1 hPa 0,0 l/m 1,3 km/h (1 Bft) S-SW 202 1,0 C 1,8 C 0,0 km/h (0 Bft)
02.03.2014 10:40 1,7 C 95 % 1005,1 hPa 0,0 l/m 0,5 km/h (0 Bft) W-SW 247 1,0 C 1,8 C 0,0 km/h (0 Bft)
02.03.2014 10:45 1,7 C 95 % 1005,1 hPa 0,0 l/m 0,6 km/h (0 Bft) W-SW 247 1,0 C 1,8 C 1,8 km/h (1 Bft)
02.03.2014 10:50 1,7 C 95 % 1005,1 hPa 0,0 l/m 0,6 km/h (0 Bft) S 180 1,0 C 1,7 C 1,9 km/h (1 Bft)
02.03.2014 10:55 1,7 C 95 % 1005,1 hPa 0,0 l/m 0,8 km/h (0 Bft) S 180 1,0 C 1,8 C 2,9 km/h (1 Bft)
02.03.2014 11:00 1,8 C 95 % 1005,1 hPa 0,0 l/m 1,3 km/h (1 Bft) S-SW 202 1,1 C 1,9 C 3,1 km/h (1 Bft)
02.03.2014 11:05 1,9 C 95 % 1005,1 hPa 0,0 l/m 1,3 km/h (1 Bft) S-SO 157 1,2 C 1,9 C 2,1 km/h (1 Bft)
02.03.2014 11:10 1,9 C 95 % 1005,2 hPa 0,0 l/m 1,3 km/h (1 Bft) S 180 1,2 C 2,0 C 2,4 km/h (1 Bft)
02.03.2014 11:15 2,0 C 94 % 1005,2 hPa 0,0 l/m 0,8 km/h (0 Bft) W-SW 247 1,1 C 2,0 C 0,0 km/h (0 Bft)
02.03.2014 11:20 1,9 C 95 % 1005,2 hPa 0,0 l/m 1,1 km/h (1 Bft) S 180 1,2 C 2,1 C 2,7 km/h (1 Bft)
02.03.2014 11:25 1,9 C 95 % 1005,2 hPa 0,0 l/m 1,1 km/h (1 Bft) S-SO 157 1,2 C 2,1 C 2,7 km/h (1 Bft)
02.03.2014 11:30 1,9 C 95 % 1005,2 hPa 0,0 l/m 1,1 km/h (1 Bft) S 180 1,2 C 2,1 C 0,0 km/h (0 Bft)
02.03.2014 11:35 2,0 C 94 % 1005,2 hPa 0,0 l/m 1,1 km/h (1 Bft) S 180 1,1 C 2,1 C 2,7 km/h (1 Bft)
02.03.2014 11:40 2,0 C 94 % 1005,2 hPa 0,0 l/m 1,0 km/h (0 Bft) S-SW 202 1,1 C 2,1 C 2,7 km/h (1 Bft)
02.03.2014 11:45 2,0 C 94 % 1005,2 hPa 0,0 l/m 1,0 km/h (0 Bft) S-SW 202 1,1 C 2,2 C 1,6 km/h (1 Bft)
02.03.2014 11:50 2,2 C 94 % 1005,6 hPa 0,0 l/m 0,8 km/h (0 Bft) SW 225 1,3 C 2,2 C 2,1 km/h (1 Bft)
02.03.2014 11:53 2,1 C 94 % 1005,6 hPa 0,0 l/m 1,0 km/h (0 Bft) S 180 1,2 C 2,1 C 0,0 km/h (0 Bft)
02.03.2014 11:55 2,1 C 94 % 1005,6 hPa 0,0 l/m 1,0 km/h (0 Bft) S 180 1,2 C 2,1 C 0,0 km/h (0 Bft)
02.03.2014 12:00 2,1 C 94 % 1005,6 hPa 0,0 l/m 0,6 km/h (0 Bft) W-SW 247 1,2 C 2,3 C 1,6 km/h (1 Bft)
02.03.2014 12:05 2,2 C 94 % 1005,6 hPa 0,0 l/m 0,2 km/h (0 Bft) S 180 1,3 C 2,3 C 0,0 km/h (0 Bft)
02.03.2014 12:10 2,1 C 94 % 1005,4 hPa 0,0 l/m 1,3 km/h (1 Bft) S 180 1,2 C 2,3 C 2,7 km/h (1 Bft)
02.03.2014 12:15 2,2 C 94 % 1005,4 hPa 0,0 l/m 1,6 km/h (1 Bft) S-SW 202 1,3 C 2,3 C 0,0 km/h (0 Bft)
02.03.2014 12:20 2,2 C 94 % 1005,4 hPa 0,0 l/m 1,9 km/h (1 Bft) SW 225 1,3 C 2,4 C 4,0 km/h (1 Bft)
02.03.2014 12:25 2,1 C 94 % 1005,4 hPa 0,0 l/m 2,3 km/h (1 Bft) S-SW 202 1,2 C 2,3 C 2,7 km/h (1 Bft)
02.03.2014 12:30 2,1 C 94 % 1005,4 hPa 0,0 l/m 2,7 km/h (1 Bft) S 180 1,2 C 2,2 C 4,3 km/h (1 Bft)
02.03.2014 12:35 2,2 C 94 % 1005,4 hPa 0,0 l/m 2,7 km/h (1 Bft) SW 225 1,3 C 2,3 C 4,2 km/h (1 Bft)
02.03.2014 12:40 2,3 C 94 % 1005,4 hPa 0,0 l/m 3,1 km/h (1 Bft) W-SW 247 1,4 C 2,1 C 4,5 km/h (1 Bft)
02.03.2014 12:45 2,2 C 94 % 1005,4 hPa 0,0 l/m 3,4 km/h (1 Bft) W-SW 247 1,3 C 2,1 C 5,0 km/h (1 Bft)
02.03.2014 12:50 2,3 C 94 % 1005,1 hPa 0,0 l/m 3,4 km/h (1 Bft) S-SW 202 1,4 C 2,1 C 4,8 km/h (1 Bft)
02.03.2014 12:55 2,3 C 94 % 1005,1 hPa 0,0 l/m 2,9 km/h (1 Bft) W-NW 292 1,4 C 2,3 C 1,8 km/h (1 Bft)
02.03.2014 13:00 2,1 C 94 % 1005,1 hPa 0,0 l/m 2,3 km/h (1 Bft) NW 315 1,2 C 2,5 C 4,3 km/h (1 Bft)
02.03.2014 13:05 2,0 C 94 % 1005,1 hPa 0,0 l/m 2,1 km/h (1 Bft) W-SW 247 1,1 C 2,4 C 2,1 km/h (1 Bft)
02.03.2014 13:10 2,0 C 94 % 1005,2 hPa 0,0 l/m 3,1 km/h (1 Bft) NW 315 1,1 C 2,1 C 3,4 km/h (1 Bft)
02.03.2014 13:15 1,9 C 94 % 1005,2 hPa 0,0 l/m 2,6 km/h (1 Bft) W-NW 292 1,0 C 2,4 C 3,1 km/h (1 Bft)
02.03.2014 13:20 2,0 C 94 % 1005,2 hPa 0,0 l/m 2,6 km/h (1 Bft) W 270 1,1 C 2,3 C 6,0 km/h (2 Bft)
02.03.2014 13:25 2,0 C 94 % 1005,2 hPa 0,0 l/m 3,4 km/h (1 Bft) W-NW 292 1,1 C 1,9 C 6,3 km/h (2 Bft)
02.03.2014 13:30 2,0 C 94 % 1005,0 hPa 0,0 l/m 4,0 km/h (1 Bft) W-SW 247 1,1 C 1,4 C 2,4 km/h (1 Bft)
02.03.2014 13:35 2,2 C 94 % 1005,0 hPa 0,0 l/m 3,7 km/h (1 Bft) S-SW 202 1,3 C 1,8 C 3,4 km/h (1 Bft)
02.03.2014 13:40 2,1 C 94 % 1005,0 hPa 0,0 l/m 3,4 km/h (1 Bft) SW 225 1,2 C 1,9 C 3,1 km/h (1 Bft)
02.03.2014 13:45 2,1 C 94 % 1005,0 hPa 0,0 l/m 3,7 km/h (1 Bft) W-SW 247 1,2 C 1,6 C 3,2 km/h (1 Bft)
02.03.2014 13:50 2,2 C 94 % 1005,1 hPa 0,0 l/m 3,1 km/h (1 Bft) W-SW 247 1,3 C 2,0 C 6,1 km/h (2 Bft)
02.03.2014 13:55 2,1 C 94 % 1005,1 hPa 0,0 l/m 3,4 km/h (1 Bft) W-NW 292 1,2 C 1,8 C 7,1 km/h (2 Bft)
02.03.2014 14:00 2,0 C 94 % 1005,1 hPa 0,0 l/m 4,8 km/h (1 Bft) W-SW 247 1,1 C 1,0 C 6,3 km/h (2 Bft)
02.03.2014 14:05 2,0 C 94 % 1005,1 hPa 0,0 l/m 4,3 km/h (1 Bft) W-NW 292 1,1 C 1,2 C 2,9 km/h (1 Bft)
02.03.2014 14:10 2,0 C 95 % 1005,1 hPa 0,0 l/m 3,4 km/h (1 Bft) W 270 1,3 C 1,8 C 2,9 km/h (1 Bft)
02.03.2014 14:15 2,1 C 95 % 1005,1 hPa 0,0 l/m 2,4 km/h (1 Bft) W 270 1,4 C 2,3 C 1,9 km/h (1 Bft)
02.03.2014 14:20 2,0 C 95 % 1005,1 hPa 0,0 l/m 2,4 km/h (1 Bft) SW 225 1,3 C 2,3 C 0,0 km/h (0 Bft)
02.03.2014 14:25 1,9 C 95 % 1005,1 hPa 0,0 l/m 2,6 km/h (1 Bft) S 180 1,2 C 2,3 C 3,2 km/h (1 Bft)
02.03.2014 14:30 1,9 C 95 % 1005,1 hPa 0,0 l/m 2,4 km/h (1 Bft) W 270 1,2 C 2,2 C 5,5 km/h (1 Bft)
02.03.2014 14:35 2,0 C 95 % 1005,1 hPa 0,0 l/m 3,4 km/h (1 Bft) SW 225 1,3 C 1,8 C 5,8 km/h (2 Bft)
02.03.2014 14:40 2,0 C 95 % 1005,1 hPa 0,0 l/m 3,5 km/h (1 Bft) W-SW 247 1,3 C 1,7 C 3,5 km/h (1 Bft)
02.03.2014 14:45 2,0 C 95 % 1005,1 hPa 0,0 l/m 3,2 km/h (1 Bft) SW 225 1,3 C 1,8 C 0,0 km/h (0 Bft)
02.03.2014 14:50 2,0 C 95 % 1005,1 hPa 0,0 l/m 2,6 km/h (1 Bft) S-SW 202 1,3 C 2,3 C 6,0 km/h (2 Bft)
02.03.2014 14:55 2,0 C 95 % 1005,1 hPa 0,0 l/m 2,6 km/h (1 Bft) W-SW 247 1,3 C 2,2 C 3,9 km/h (1 Bft)
02.03.2014 15:00 2,0 C 95 % 1005,1 hPa 0,0 l/m 3,1 km/h (1 Bft) W-NW 292 1,3 C 1,9 C 3,7 km/h (1 Bft)
02.03.2014 15:05 2,1 C 95 % 1005,1 hPa 0,0 l/m 2,3 km/h (1 Bft) W-SW 247 1,4 C 2,3 C 3,1 km/h (1 Bft)
02.03.2014 15:10 2,1 C 95 % 1005,1 hPa 0,0 l/m 1,6 km/h (1 Bft) W-SW 247 1,4 C 2,3 C 3,2 km/h (1 Bft)
02.03.2014 15:15 2,1 C 95 % 1005,1 hPa 0,0 l/m 2,1 km/h (1 Bft) W-SW 247 1,4 C 2,3 C 2,3 km/h (1 Bft)
02.03.2014 15:20 2,1 C 95 % 1005,1 hPa 0,0 l/m 1,9 km/h (1 Bft) W-NW 292 1,4 C 2,4 C 0,0 km/h (0 Bft)
02.03.2014 15:25 2,0 C 95 % 1005,1 hPa 0,0 l/m 1,9 km/h (1 Bft) W-SW 247 1,3 C 2,4 C 4,2 km/h (1 Bft)
02.03.2014 15:30 2,0 C 95 % 1004,9 hPa 0,0 l/m 2,3 km/h (1 Bft) W 270 1,3 C 2,3 C 5,1 km/h (1 Bft)
02.03.2014 15:35 2,0 C 95 % 1004,9 hPa 0,0 l/m 2,9 km/h (1 Bft) W 270 1,3 C 2,1 C 3,9 km/h (1 Bft)
02.03.2014 15:40 1,9 C 95 % 1004,9 hPa 0,0 l/m 3,1 km/h (1 Bft) W-NW 292 1,2 C 1,9 C 3,7 km/h (1 Bft)
02.03.2014 15:45 2,0 C 95 % 1004,9 hPa 0,0 l/m 2,7 km/h (1 Bft) W-SW 247 1,3 C 2,2 C 1,6 km/h (1 Bft)
02.03.2014 15:50 2,1 C 95 % 1004,9 hPa 0,0 l/m 2,4 km/h (1 Bft) W-NW 292 1,4 C 2,4 C 2,7 km/h (1 Bft)
02.03.2014 15:55 2,1 C 95 % 1004,9 hPa 0,0 l/m 1,4 km/h (1 Bft) W 270 1,4 C 2,4 C 0,0 km/h (0 Bft)
02.03.2014 16:00 2,3 C 95 % 1004,9 hPa 0,0 l/m 1,0 km/h (0 Bft) W-NW 292 1,6 C 2,6 C 1,8 km/h (1 Bft)
02.03.2014 16:05 2,3 C 95 % 1004,9 hPa 0,0 l/m 0,5 km/h (0 Bft) W 270 1,6 C 2,7 C 0,0 km/h (0 Bft)
02.03.2014 16:10 2,4 C 95 % 1004,8 hPa 0,0 l/m 0,0 km/h (0 Bft) N-NW 337 1,7 C 3,1 C 0,0 km/h (0 Bft)
02.03.2014 16:15 2,4 C 95 % 1004,8 hPa 0,0 l/m 0,8 km/h (0 Bft) W 270 1,7 C 3,2 C 4,0 km/h (1 Bft)
02.03.2014 16:20 2,2 C 95 % 1004,8 hPa 0,0 l/m 2,6 km/h (1 Bft) N 360 1,5 C 3,0 C 3,9 km/h (1 Bft)
02.03.2014 16:25 2,1 C 95 % 1004,8 hPa 0,0 l/m 3,1 km/h (1 Bft) N-NW 337 1,4 C 2,8 C 1,8 km/h (1 Bft)
02.03.2014 16:30 2,2 C 95 % 1004,7 hPa 0,0 l/m 1,8 km/h (1 Bft) N-NW 337 1,5 C 3,0 C 0,0 km/h (0 Bft)
02.03.2014 16:35 2,3 C 95 % 1004,7 hPa 0,0 l/m 0,8 km/h (0 Bft) N-NO 22 1,6 C 3,0 C 2,1 km/h (1 Bft)
02.03.2014 16:40 2,3 C 94 % 1004,7 hPa 0,0 l/m 1,4 km/h (1 Bft) N-NW 337 1,4 C 3,1 C 2,6 km/h (1 Bft)
02.03.2014 16:45 2,3 C 94 % 1004,7 hPa 0,0 l/m 2,4 km/h (1 Bft) N 360 1,4 C 3,1 C 1,8 km/h (1 Bft)
02.03.2014 16:50 2,3 C 94 % 1004,6 hPa 0,0 l/m 2,6 km/h (1 Bft) W-NW 292 1,4 C 3,1 C 5,3 km/h (1 Bft)
02.03.2014 16:53 2,3 C 94 % 1004,6 hPa 0,0 l/m 2,9 km/h (1 Bft) N 360 1,4 C 3,0 C 7,1 km/h (2 Bft)
02.03.2014 16:55 2,3 C 94 % 1004,6 hPa 0,0 l/m 2,9 km/h (1 Bft) N 360 1,4 C 3,0 C 7,1 km/h (2 Bft)
02.03.2014 17:00 2,2 C 94 % 1004,6 hPa 0,0 l/m 3,4 km/h (1 Bft) W 270 1,3 C 2,5 C 3,5 km/h (1 Bft)
02.03.2014 17:05 2,1 C 94 % 1004,6 hPa 0,0 l/m 3,2 km/h (1 Bft) W-NW 292 1,2 C 2,4 C 4,3 km/h (1 Bft)
02.03.2014 17:10 2,0 C 94 % 1004,2 hPa 0,0 l/m 3,1 km/h (1 Bft) N-NW 337 1,1 C 2,3 C 2,7 km/h (1 Bft)
02.03.2014 17:15 2,1 C 94 % 1004,2 hPa 0,0 l/m 2,3 km/h (1 Bft) NW 315 1,2 C 2,6 C 0,0 km/h (0 Bft)
02.03.2014 17:20 2,1 C 94 % 1004,2 hPa 0,0 l/m 1,1 km/h (1 Bft) N-NW 337 1,2 C 2,6 C 3,4 km/h (1 Bft)
02.03.2014 17:25 2,1 C 94 % 1004,2 hPa 0,0 l/m 2,1 km/h (1 Bft) N 360 1,2 C 2,6 C 4,7 km/h (1 Bft)
02.03.2014 17:30 2,1 C 94 % 1004,2 hPa 0,0 l/m 3,1 km/h (1 Bft) W-NW 292 1,2 C 2,3 C 3,1 km/h (1 Bft)
02.03.2014 17:35 2,1 C 94 % 1004,2 hPa 0,0 l/m 3,1 km/h (1 Bft) N 360 1,2 C 2,3 C 4,8 km/h (1 Bft)
02.03.2014 17:40 2,0 C 94 % 1004,2 hPa 0,0 l/m 2,9 km/h (1 Bft) N 360 1,1 C 2,3 C 2,7 km/h (1 Bft)
02.03.2014 17:45 2,0 C 94 % 1004,2 hPa 0,0 l/m 2,9 km/h (1 Bft) N-NW 337 1,1 C 2,3 C 6,4 km/h (2 Bft)
02.03.2014 17:50 1,9 C 94 % 1004,1 hPa 0,0 l/m 2,9 km/h (1 Bft) N-NW 337 1,0 C 2,2 C 2,3 km/h (1 Bft)
02.03.2014 17:55 1,9 C 94 % 1004,1 hPa 0,0 l/m 2,9 km/h (1 Bft) W 270 1,0 C 2,1 C 2,3 km/h (1 Bft)
02.03.2014 18:00 1,8 C 95 % 1004,1 hPa 0,0 l/m 1,6 km/h (1 Bft) N-NW 337 1,1 C 2,2 C 1,8 km/h (1 Bft)
02.03.2014 18:05 1,8 C 95 % 1004,1 hPa 0,0 l/m 0,6 km/h (0 Bft) N 360 1,1 C 2,1 C 3,2 km/h (1 Bft)
02.03.2014 18:10 1,6 C 95 % 1003,9 hPa 0,0 l/m 1,1 km/h (1 Bft) N-NO 22 0,9 C 2,0 C 0,0 km/h (0 Bft)
02.03.2014 18:15 1,5 C 95 % 1003,9 hPa 0,0 l/m 1,3 km/h (1 Bft) NO 45 0,8 C 1,9 C 2,9 km/h (1 Bft)
02.03.2014 18:20 1,5 C 95 % 1003,9 hPa 0,0 l/m 0,2 km/h (0 Bft) N-NW 337 0,8 C 1,7 C 0,0 km/h (0 Bft)
02.03.2014 18:25 1,4 C 95 % 1003,9 hPa 0,0 l/m 0,2 km/h (0 Bft) NO 45 0,7 C 1,7 C 0,0 km/h (0 Bft)
02.03.2014 18:30 1,3 C 95 % 1003,8 hPa 0,0 l/m 0,0 km/h (0 Bft) NO 45 0,6 C 1,6 C 0,0 km/h (0 Bft)
02.03.2014 18:35 1,3 C 95 % 1003,8 hPa 0,0 l/m 0,0 km/h (0 Bft) NO 45 0,6 C 1,5 C 0,0 km/h (0 Bft)
02.03.2014 18:40 1,3 C 95 % 1003,8 hPa 0,0 l/m 0,0 km/h (0 Bft) NO 45 0,6 C 1,5 C 0,0 km/h (0 Bft)
02.03.2014 18:45 1,3 C 95 % 1003,8 hPa 0,0 l/m 0,2 km/h (0 Bft) NO 45 0,6 C 1,5 C 0,0 km/h (0 Bft)
02.03.2014 18:50 1,4 C 95 % 1003,6 hPa 0,0 l/m 1,4 km/h (1 Bft) N 360 0,7 C 1,6 C 3,5 km/h (1 Bft)
02.03.2014 18:55 1,4 C 95 % 1003,6 hPa 0,0 l/m 2,1 km/h (1 Bft) N-NW 337 0,7 C 1,6 C 3,5 km/h (1 Bft)
02.03.2014 19:00 1,4 C 96 % 1003,6 hPa 0,0 l/m 2,1 km/h (1 Bft) W-NW 292 0,8 C 1,7 C 1,6 km/h (1 Bft)
02.03.2014 19:05 1,4 C 96 % 1003,6 hPa 0,0 l/m 1,9 km/h (1 Bft) N 360 0,8 C 1,7 C 4,3 km/h (1 Bft)
02.03.2014 19:10 1,4 C 96 % 1003,6 hPa 0,0 l/m 2,7 km/h (1 Bft) N 360 0,8 C 1,7 C 4,3 km/h (1 Bft)
02.03.2014 19:15 1,4 C 96 % 1003,6 hPa 0,0 l/m 3,4 km/h (1 Bft) N-NW 337 0,8 C 1,2 C 2,3 km/h (1 Bft)
02.03.2014 19:20 1,3 C 96 % 1003,6 hPa 0,0 l/m 2,7 km/h (1 Bft) N 360 0,7 C 1,6 C 2,1 km/h (1 Bft)
02.03.2014 19:25 1,3 C 96 % 1003,6 hPa 0,0 l/m 1,9 km/h (1 Bft) N-NW 337 0,7 C 1,7 C 0,0 km/h (0 Bft)
02.03.2014 19:30 1,3 C 96 % 1003,3 hPa 0,0 l/m 0,5 km/h (0 Bft) NO 45 0,7 C 1,7 C 0,0 km/h (0 Bft)
02.03.2014 19:35 1,3 C 96 % 1003,3 hPa 0,0 l/m 0,0 km/h (0 Bft) N-NW 337 0,7 C 1,6 C 0,0 km/h (0 Bft)
02.03.2014 19:40 1,3 C 96 % 1003,3 hPa 0,0 l/m 0,0 km/h (0 Bft) NO 45 0,7 C 1,7 C 0,0 km/h (0 Bft)
02.03.2014 19:45 1,4 C 96 % 1003,3 hPa 0,0 l/m 0,0 km/h (0 Bft) N-NW 337 0,8 C 1,7 C 0,0 km/h (0 Bft)
02.03.2014 19:50 1,3 C 96 % 1003,2 hPa 0,0 l/m 0,2 km/h (0 Bft) N-NW 337 0,7 C 1,7 C 3,1 km/h (1 Bft)
02.03.2014 19:55 1,3 C 96 % 1003,2 hPa 0,0 l/m 0,2 km/h (0 Bft) W-NW 292 0,7 C 1,7 C 0,0 km/h (0 Bft)
02.03.2014 20:00 1,3 C 96 % 1003,2 hPa 0,0 l/m 0,2 km/h (0 Bft) N-NW 337 0,7 C 1,6 C 0,0 km/h (0 Bft)
02.03.2014 20:05 1,2 C 96 % 1003,2 hPa 0,0 l/m 0,0 km/h (0 Bft) N 360 0,6 C 1,6 C 0,0 km/h (0 Bft)
02.03.2014 20:10 1,3 C 96 % 1003,1 hPa 0,0 l/m 1,0 km/h (0 Bft) NW 315 0,7 C 1,5 C 3,9 km/h (1 Bft)
02.03.2014 20:15 1,3 C 96 % 1003,1 hPa 0,0 l/m 2,1 km/h (1 Bft) N-NW 337 0,7 C 1,5 C 4,2 km/h (1 Bft)
02.03.2014 20:20 1,3 C 96 % 1003,1 hPa 0,0 l/m 4,3 km/h (1 Bft) N-NW 337 0,7 C 0,4 C 7,6 km/h (2 Bft)
02.03.2014 20:25 1,3 C 96 % 1003,1 hPa 0,0 l/m 5,0 km/h (1 Bft) N 360 0,7 C 0,1 C 4,8 km/h (1 Bft)
02.03.2014 20:30 1,3 C 96 % 1002,6 hPa 0,0 l/m 3,5 km/h (1 Bft) N 360 0,7 C 0,9 C 3,1 km/h (1 Bft)
02.03.2014 20:35 1,3 C 96 % 1002,6 hPa 0,0 l/m 2,1 km/h (1 Bft) NO 45 0,7 C 1,5 C 0,0 km/h (0 Bft)
02.03.2014 20:40 1,3 C 96 % 1002,6 hPa 0,0 l/m 2,3 km/h (1 Bft) N 360 0,7 C 1,6 C 4,7 km/h (1 Bft)
02.03.2014 20:45 1,3 C 96 % 1002,6 hPa 0,0 l/m 2,7 km/h (1 Bft) N-NO 22 0,7 C 1,5 C 3,1 km/h (1 Bft)
02.03.2014 20:50 1,4 C 96 % 1002,3 hPa 0,0 l/m 3,4 km/h (1 Bft) N-NW 337 0,8 C 1,1 C 6,0 km/h (2 Bft)
02.03.2014 20:55 1,4 C 96 % 1002,3 hPa 0,0 l/m 4,2 km/h (1 Bft) N 360 0,8 C 0,6 C 6,6 km/h (2 Bft)
02.03.2014 21:00 1,3 C 96 % 1002,3 hPa 0,0 l/m 4,5 km/h (1 Bft) NW 315 0,7 C 0,6 C 5,8 km/h (2 Bft)
02.03.2014 21:05 1,3 C 96 % 1002,3 hPa 0,0 l/m 4,2 km/h (1 Bft) NO 45 0,7 C 0,6 C 7,2 km/h (2 Bft)
02.03.2014 21:10 1,3 C 96 % 1002,1 hPa 0,0 l/m 4,3 km/h (1 Bft) N-NW 337 0,7 C 0,6 C 4,3 km/h (1 Bft)
02.03.2014 21:15 1,3 C 96 % 1002,1 hPa 0,0 l/m 3,7 km/h (1 Bft) N-NW 337 0,7 C 0,9 C 3,9 km/h (1 Bft)
02.03.2014 21:20 1,3 C 96 % 1002,1 hPa 0,0 l/m 3,1 km/h (1 Bft) N-NW 337 0,7 C 1,3 C 5,5 km/h (1 Bft)
02.03.2014 21:25 1,2 C 96 % 1002,1 hPa 0,0 l/m 4,2 km/h (1 Bft) N-NW 337 0,6 C 0,6 C 7,2 km/h (2 Bft)
02.03.2014 21:30 1,2 C 96 % 1001,9 hPa 0,0 l/m 5,6 km/h (1 Bft) N-NW 337 0,6 C -0,2 C 9,3 km/h (2 Bft)
02.03.2014 21:35 1,2 C 96 % 1001,9 hPa 0,0 l/m 5,8 km/h (2 Bft) N-NW 337 0,6 C -0,2 C 7,2 km/h (2 Bft)
02.03.2014 21:40 1,2 C 96 % 1001,9 hPa 0,0 l/m 5,3 km/h (1 Bft) W-NW 292 0,6 C -0,2 C 2,1 km/h (1 Bft)
02.03.2014 21:45 1,1 C 96 % 1001,9 hPa 0,0 l/m 4,2 km/h (1 Bft) N 360 0,5 C 0,4 C 6,0 km/h (2 Bft)
02.03.2014 21:50 1,1 C 96 % 1001,8 hPa 0,0 l/m 3,9 km/h (1 Bft) N-NW 337 0,5 C 0,6 C 5,8 km/h (2 Bft)
02.03.2014 21:53 1,1 C 96 % 1001,8 hPa 0,0 l/m 5,0 km/h (1 Bft) N 360 0,5 C 0,0 C 6,8 km/h (2 Bft)
02.03.2014 21:55 1,1 C 96 % 1001,8 hPa 0,0 l/m 5,0 km/h (1 Bft) N 360 0,5 C 0,0 C 6,8 km/h (2 Bft)
02.03.2014 22:00 1,1 C 96 % 1001,8 hPa 0,0 l/m 3,4 km/h (1 Bft) N 360 0,5 C 0,8 C 2,1 km/h (1 Bft)
02.03.2014 22:05 1,1 C 96 % 1001,8 hPa 0,0 l/m 3,1 km/h (1 Bft) N-NO 22 0,5 C 1,0 C 2,7 km/h (1 Bft)
02.03.2014 22:10 1,1 C 96 % 1001,8 hPa 0,0 l/m 2,9 km/h (1 Bft) N 360 0,5 C 1,1 C 5,8 km/h (2 Bft)
02.03.2014 22:15 1,1 C 96 % 1001,8 hPa 0,0 l/m 2,7 km/h (1 Bft) N-NW 337 0,5 C 1,1 C 2,4 km/h (1 Bft)
02.03.2014 22:20 1,1 C 96 % 1001,8 hPa 0,0 l/m 3,4 km/h (1 Bft) N 360 0,5 C 0,7 C 6,6 km/h (2 Bft)
02.03.2014 22:25 1,1 C 96 % 1001,8 hPa 0,0 l/m 4,0 km/h (1 Bft) NO 45 0,5 C 0,3 C 4,5 km/h (1 Bft)
02.03.2014 22:30 1,0 C 96 % 1001,3 hPa 0,0 l/m 3,1 km/h (1 Bft) N-NW 337 0,4 C 0,9 C 3,5 km/h (1 Bft)
02.03.2014 22:35 1,0 C 96 % 1001,3 hPa 0,0 l/m 2,3 km/h (1 Bft) NO 45 0,4 C 1,3 C 2,6 km/h (1 Bft)
02.03.2014 22:40 1,0 C 96 % 1001,3 hPa 0,0 l/m 3,1 km/h (1 Bft) O-NO 67 0,4 C 0,9 C 2,6 km/h (1 Bft)
02.03.2014 22:45 1,0 C 96 % 1001,3 hPa 0,0 l/m 3,1 km/h (1 Bft) N-NW 337 0,4 C 0,9 C 1,8 km/h (1 Bft)
02.03.2014 22:50 1,0 C 96 % 1001,2 hPa 0,0 l/m 2,1 km/h (1 Bft) NO 45 0,4 C 1,2 C 3,4 km/h (1 Bft)
02.03.2014 22:55 1,0 C 96 % 1001,2 hPa 0,0 l/m 1,0 km/h (0 Bft) O 90 0,4 C 1,2 C 0,0 km/h (0 Bft)
02.03.2014 23:00 1,0 C 96 % 1001,2 hPa 0,0 l/m 0,3 km/h (0 Bft) NO 45 0,4 C 1,2 C 0,0 km/h (0 Bft)
02.03.2014 23:05 1,0 C 96 % 1001,2 hPa 0,0 l/m 0,0 km/h (0 Bft) O-SO 112 0,4 C 1,2 C 0,0 km/h (0 Bft)
02.03.2014 23:10 0,9 C 97 % 1001,1 hPa 0,0 l/m 0,0 km/h (0 Bft) NO 45 0,5 C 1,2 C 0,0 km/h (0 Bft)
02.03.2014 23:15 1,0 C 96 % 1001,1 hPa 0,0 l/m 0,0 km/h (0 Bft) N-NO 22 0,4 C 1,2 C 0,0 km/h (0 Bft)
02.03.2014 23:20 0,9 C 97 % 1001,1 hPa 0,0 l/m 0,0 km/h (0 Bft) N-NO 22 0,5 C 1,2 C 0,0 km/h (0 Bft)
02.03.2014 23:25 0,9 C 97 % 1001,1 hPa 0,0 l/m 0,0 km/h (0 Bft) O-SO 112 0,5 C 1,1 C 0,0 km/h (0 Bft)
02.03.2014 23:30 0,9 C 97 % 1000,4 hPa 0,0 l/m 0,0 km/h (0 Bft) S 180 0,5 C 1,1 C 0,0 km/h (0 Bft)
02.03.2014 23:35 0,8 C 97 % 1000,4 hPa 0,0 l/m 0,0 km/h (0 Bft) W-SW 247 0,4 C 1,1 C 0,0 km/h (0 Bft)
02.03.2014 23:40 0,8 C 97 % 1000,4 hPa 0,0 l/m 0,0 km/h (0 Bft) NO 45 0,4 C 1,1 C 0,0 km/h (0 Bft)
02.03.2014 23:45 0,7 C 97 % 1000,4 hPa 0,0 l/m 0,0 km/h (0 Bft) N-NW 337 0,3 C 1,0 C 0,0 km/h (0 Bft)
02.03.2014 23:50 0,6 C 97 % 999,7 hPa 0,0 l/m 0,5 km/h (0 Bft) S 180 0,2 C 0,9 C 0,0 km/h (0 Bft)
02.03.2014 23:55 0,4 C 97 % 999,7 hPa 0,0 l/m 0,5 km/h (0 Bft) O-SO 112 -0,0 C 0,8 C 0,0 km/h (0 Bft)
_ Min-Zeit 23:55 01:35 23:55 - 23:45 - - 00:00 21:40 23:55
Minimum _ 0,4 C 87 % 999,7 hPa - 0,0 km/h (0 Bft) - - -1,3 C -0,2 C 0,0 km/h (0 Bft)
_ Max-Zeit 16:15 23:55 12:05 23:55 21:35 - - 16:15 16:15 21:30
Maximum _ 2,4 C 97 % 1005,6 hPa 0,0 l/m 5,8 km/h
N-NW (2 Bft)
- - 1,7 C 3,2 C 9,3 km/h
N-NW (2 Bft)
Durchschnitt _ 1,3 C 93 % 1003,4 hPa #0,0 l/m 2,0 km/h (1 Bft) S - 0,3 C 1,3 C 2,6 km/h (1 Bft)